Startpagina
METAR-TAF:

METAR-TAF

Vliegvelden :

Büchel, Duitsland

breedte: 50-10N, lengte: 007-04E, hoogte: 478 m

Actueel weer

Dit bericht is 40 minuten geleden gemaakt, om 03:20 UTC
Wind 4 kt uit het westnoordwesten
Temperatuur -1°C
Vochtigheid 93%
Druk 1021 hPa
Zicht: 9000 m

METAR: ETSB 120320Z AUTO 29004KT 9000 // ////// M01/M02 Q1021 ///

Tijdstip: 06:00 (04:00 UTC)


TAF: ontbreekt

Waarnemingen en weersverwachtingen van meer dan 4000 vliegvelden (METAR en TAF).

De beschikbare stations zijn de gele en rode punten op de kaart.

Ga met uw muis naar het station om de naam te zien.

Klik dan om waarnemingen en weersverwachtingen te zien.

kaart wijzigen: klik op de groene knoppen met een zwart kruis om in te zoomen, op de groene knop met een streepje om uit te zoomen of op de groene pijlen voor aangrenzende kaarten.


METAR-TAF: